User: anonymous   Login
Location: Brno
(49.2000°N, 16.6330°E)
Time: 14:48:06
(UTC+01:00)
Language:

BREEZE M DEB (TANK) - Orbit

View from above orbital plane
View from above orbital plane
View from above satellite
View from above satellite

Ground track
Ground track

The orbit data is extracted from the following two-line orbital elements,

1 28359U 04022B   16039.35028621  .00008883  00000-0  12614-2 0  9994
2 28359  49.5111 180.1869 4676478 167.8100 209.4632  6.17506238254643
Epoch (UTC): 08 February 2016 08:24:24
Eccentricity: 0.4676478
inclination: 49.5111°
perigee height: 303 km
apogee height: 12040 km
right ascension of ascending node: 180.1869°
argument of perigee: 167.8100°
revolutions per day: 6.17506238
mean anomaly at epoch: 209.4632°
orbit number at epoch: 25464

The dashed part of the orbit path shows where the satellite is in the earth's shadow,  

DLR